Regional Weather Roundup
Issued by NWS

Home | Current Version | Previous Version | Graphics & Text | Print | Product List | Glossary On
Versions: 1 2 3 4 5 6 7 8 9 10 11 12 13 14 15 16 17 18 19 20 21 22 23 24 25 26 27 28 29 30 31 32 33 34 35 36 37 38 39 40 41 42 43 44 45 46 47 48 49 50
000
ASUS43 KLSX 191459
RWRMO

WEATHER SUMMARY FOR MISSOURI
NATIONAL WEATHER SERVICE SPRINGFIELD MO
900 AM CST FRI DEC 19 2014

NOTE: "FAIR" INDICATES FEW OR NO CLOUDS BELOW 12,000 FEET WITH NO
       SIGNIFICANT WEATHER AND/OR OBSTRUCTIONS TO VISIBILITY.
       CURRENT SKY AND/OR WEATHER CONDITIONS ARE NOT AVAILABLE FOR
       CHILLICOTHE AND FARMINGTON.

MOZ001>031-035>038-043-044-053-054-191600-
...NORTHERN AND WESTERN MISSOURI...

CITY           SKY/WX    TMP DP  RH WIND       PRES   REMARKS
KANSAS CTY INT DRIZZLE   30  29  96 E6        30.26S FOG     WCI  24
KANSAS C DTWN  CLOUDY    32  29  88 NE3       30.27S
LEE`S SUMMIT   CLOUDY    31  29  92 E5        30.26S WCI  26
ST JOSEPH      CLOUDY    30  27  88 CALM      30.29R
CHILLICOTHE      N/A     31  28  89 SE3       30.30R
KIRKSVILLE     CLOUDY    29  27  92 E6        30.29R FOG     WCI  23

$$
MOZ066>068-077>081-088>096-101>105-191600-
...SOUTHWEST MISSOURI...

CITY           SKY/WX    TMP DP  RH WIND       PRES   REMARKS
SPRINGFIELD    CLOUDY    38  35  89 S3        30.23R
JOPLIN         FOG       36  36 100 N6        30.25S VSB 1/2

$$
MOZ032>034-039>042-045>050-055>058-069>072-191600-
...CENTRAL MISSOURI...

CITY           SKY/WX    TMP DP  RH WIND       PRES   REMARKS
COLUMBIA       CLOUDY    33  30  88 E5        30.29R FOG     WCI  29
JEFFERSON CITY CLOUDY    34  31  88 E3        30.31R FOG
ROLLA          CLOUDY    33  31  92 E5        30.26R WCI  29
SEDALIA        CLOUDY    34  32  92 E5        30.28R FOG     WCI  30
WARRENSBURG    CLOUDY    32  32 100 CALM      30.28R FOG
OSAGE BEACH    CLOUDY    34  32  93 CALM      30.27R

$$
MOZ051-052-059>065-191600-
...EAST CENTRAL MISSOURI...

CITY           SKY/WX    TMP DP  RH WIND       PRES   REMARKS
ST LOUIS INTL  PTSUNNY   33  26  75 E6        30.32R HAZE    WCI  28
SPIRIT OF STL  CLOUDY    33  28  81 E8        30.30S WCI  26
ST CHARLES     CLOUDY    32  28  85 E6        30.32R FOG     WCI  26

$$
MOZ072>076-082>087-097>100-106>115-191600-
...SOUTH CENTRAL AND SOUTHEAST MISSOURI...

CITY           SKY/WX    TMP DP  RH WIND       PRES   REMARKS
CAPE GIRARDEAU CLOUDY    34  28  79 E8        30.32R WCI  27
FARMINGTON     CLOUDY    32  30  93 N6        30.29R WCI  26
POPLAR BLUFF   CLOUDY    36  29  75 NE8       30.31R WCI  30
WEST PLAINS    FOG       34  33  96 SE3       30.27R VSB 1/4

$$


USA.gov is the U.S. government's official web portal to all federal, state and local government web resources and services.